TimeEST,TemperatureF,Dew PointF,Humidity,Sea Level PressureIn,VisibilityMPH,Wind Direction,Wind SpeedMPH,Gust SpeedMPH,PrecipitationIn,Events,Conditions,WindDirDegrees,DateUTC
12:54 AM,30.9,26.1,82,29.69,10.0,WNW,3.5,-,N/A,,Overcast,300,2013-01-20 05:54:00
1:54 AM,43.0,28.0,56,29.65,10.0,SSW,13.8,23.0,N/A,,Overcast,200,2013-01-20 06:54:00
2:54 AM,42.1,27.0,55,29.63,10.0,Variable,6.9,17.3,N/A,,Clear,0,2013-01-20 07:54:00
3:54 AM,33.1,24.1,70,29.58,10.0,NNW,3.5,-,N/A,,Clear,330,2013-01-20 08:54:00
4:54 AM,28.0,24.1,85,29.52,10.0,Calm,Calm,-,N/A,,Clear,0,2013-01-20 09:54:00
5:54 AM,42.1,28.0,58,29.45,10.0,SSW,9.2,-,N/A,,Clear,210,2013-01-20 10:54:00
6:54 AM,44.1,23.0,43,29.44,10.0,SSW,11.5,19.6,N/A,,Overcast,200,2013-01-20 11:54:00
7:54 AM,45.0,24.1,44,29.40,10.0,SSW,12.7,20.7,N/A,,Mostly Cloudy,210,2013-01-20 12:54:00
8:54 AM,45.0,25.0,46,29.40,10.0,SSW,19.6,28.8,N/A,,Overcast,200,2013-01-20 13:54:00
9:22 AM,39.2,28.4,65,29.46,2.5,West,15.0,34.5,0.02,Rain,Rain,270,2013-01-20 14:22:00
9:31 AM,35.6,30.2,81,29.47,1.8,WSW,11.5,28.8,0.04,Snow,Light Snow,240,2013-01-20 14:31:00
9:36 AM,35.6,30.2,81,29.48,3.0,Variable,5.8,23.0,0.05,Snow,Light Snow,0,2013-01-20 14:36:00
9:51 AM,35.6,30.2,81,29.48,8.0,Variable,6.9,17.3,0.05,,Overcast,0,2013-01-20 14:51:00
9:54 AM,36.0,30.9,82,29.51,8.0,SW,8.1,-,0.05,,Overcast,220,2013-01-20 14:54:00
10:14 AM,35.6,30.2,81,29.48,9.0,Variable,4.6,-,0.00,,Overcast,0,2013-01-20 15:14:00
10:54 AM,35.1,30.0,82,29.49,9.0,South,5.8,-,0.00,Snow,Light Snow,180,2013-01-20 15:54:00
11:02 AM,35.6,30.2,81,29.45,10.0,South,8.1,-,N/A,,Overcast,190,2013-01-20 16:02:00
11:37 AM,35.6,30.2,81,29.47,2.5,West,11.5,19.6,0.01,Snow,Light Snow,280,2013-01-20 16:37:00
11:40 AM,35.6,28.4,75,29.47,1.0,WSW,11.5,26.5,0.01,Snow,Light Snow,250,2013-01-20 16:40:00
11:54 AM,34.0,25.0,70,29.51,2.0,WSW,15.0,32.2,0.01,Snow,Light Snow,250,2013-01-20 16:54:00
12:03 PM,35.6,23.0,60,29.48,8.0,West,16.1,39.1,0.00,Snow,Light Snow,260,2013-01-20 17:03:00
12:13 PM,37.4,19.4,48,29.48,10.0,West,12.7,40.3,0.00,,Scattered Clouds,260,2013-01-20 17:13:00
5:54 PM,26.1,14.0,60,29.78,4.0,NW,20.7,28.8,N/A,,Unknown,310,2013-01-20 22:54:00
5:58 PM,24.8,14.0,64,29.75,1.8,NW,16.1,28.8,0.00,Snow,Light Snow,310,2013-01-20 22:58:00
6:10 PM,24.8,14.0,64,29.75,3.0,WNW,8.1,23.0,0.00,Snow,Light Snow,290,2013-01-20 23:10:00
6:18 PM,24.8,14.0,64,29.76,5.0,NNW,6.9,18.4,0.00,,Overcast,340,2013-01-20 23:18:00
6:32 PM,23.0,14.0,68,29.76,2.5,NNW,10.4,18.4,0.00,Snow,Light Snow,330,2013-01-20 23:32:00
6:40 PM,23.0,14.0,68,29.77,2.0,NNW,8.1,17.3,0.00,Snow,Light Snow,330,2013-01-20 23:40:00
6:46 PM,23.0,14.0,68,29.77,4.0,NW,8.1,-,0.00,Snow,Light Snow,310,2013-01-20 23:46:00
6:54 PM,23.0,14.0,68,29.81,8.0,NNW,8.1,-,0.00,,Overcast,330,2013-01-20 23:54:00
7:03 PM,23.0,12.2,63,29.78,7.0,NW,9.2,18.4,N/A,,Overcast,320,2013-01-21 00:03:00
7:54 PM,19.9,10.0,65,29.85,5.0,NNW,15.0,20.7,0.00,Snow,Light Snow,330,2013-01-21 00:54:00
8:02 PM,19.4,10.4,68,29.82,2.5,NNW,9.2,21.9,0.00,Snow,Light Snow,330,2013-01-21 01:02:00
8:16 PM,19.4,10.4,68,29.83,1.8,NW,12.7,17.3,0.00,Snow,Light Snow,320,2013-01-21 01:16:00
8:32 PM,17.6,8.6,68,29.85,2.5,NW,12.7,21.9,0.00,Snow,Light Snow,320,2013-01-21 01:32:00
8:54 PM,18.0,9.0,68,29.90,5.0,North,6.9,17.3,0.00,Snow,Light Snow,350,2013-01-21 01:54:00
9:12 PM,17.6,6.8,63,29.87,10.0,NW,10.4,-,0.00,,Overcast,320,2013-01-21 02:12:00
9:54 PM,15.1,5.0,64,29.92,8.0,NW,11.5,18.4,0.00,,Overcast,320,2013-01-21 02:54:00
10:37 PM,14.0,3.2,62,29.90,2.0,NW,9.2,20.7,0.00,Snow,Light Snow,320,2013-01-21 03:37:00
10:54 PM,12.9,3.9,67,29.94,2.5,NW,10.4,17.3,0.00,Snow,Light Snow,310,2013-01-21 03:54:00
11:54 PM,12.0,3.0,67,29.97,3.0,NNW,6.9,-,0.00,Snow,Light Snow,340,2013-01-21 04:54:00